Location: Chervonnoye
(48.6000°N, 34.4000°E)
Time: 21:48:00
(UTC+00:00)

BEESAT 3 - Pass Details

Date: 10 December 2021
Orbit: 472 x 512 km, 64.9° (Epoch: 27 January)

Event Time Altitude Azimuth Distance (km) Brightness Sun altitude
Rises 14:40:57 0° 184° (S) 2,541 ? -8.6°
Reaches altitude 10° 14:43:22 10° 169° (S) 1,674 ? -9.0°
Maximum altitude 14:46:21 23° 116° (ESE) 1,098 ? -9.4°
Enters shadow 14:48:40 14° 71° (ENE) 1,489 ? -9.8°
